| time (UTC) | temp C | wind direction | speed KPH | gust KPH | rain 1hr cm | rain 24hr cm | rain mn cm | humidity % | barometer mb |
| 20260902073103 | 18 | 346 | 0.0 | 0.0 | 0.00 | 0.00 | 0.00 | 67 | 1006.6 |
| 20260902071557 | 19 | 346 | 0.0 | 3.2 | 0.00 | 0.00 | 0.00 | 65 | 1006.6 |
| 20260902070054 | 20 | 346 | 0.0 | 6.4 | 0.00 | 0.00 | 0.00 | 63 | 1006.4 |
| 20260902064554 | 20 | 347 | 6.4 | 14.5 | 0.00 | 0.00 | 0.00 | 63 | 1006.2 |
| 20260902063050 | 20 | 1 | 6.4 | 12.9 | 0.00 | 0.00 | 0.00 | 61 | 1006.2 |
| 20260902061559 | 20 | 356 | 4.8 | 8.0 | 0.00 | 0.00 | 0.00 | 60 | 1006.1 |
| 20260902060055 | 20 | 24 | 8.0 | 9.7 | 0.00 | 0.00 | 0.00 | 59 | 1006.2 |
| 20260902054605 | 21 | 33 | 3.2 | 11.3 | 0.00 | 0.00 | 0.00 | 59 | 1006.5 |
| 20260902053059 | 21 | 28 | 8.0 | 14.5 | 0.00 | 0.00 | 0.00 | 58 | 1006.2 |
| 20260902051543 | 21 | 351 | 1.6 | 4.8 | 0.00 | 0.00 | 0.00 | 55 | 1006.0 |
| 20260902050045 | 22 | 141 | 0.0 | 3.2 | 0.00 | 0.00 | 0.00 | 53 | 1006.0 |
| 20260902044543 | 22 | 139 | 3.2 | 8.0 | 0.00 | 0.00 | 0.00 | 52 | 1005.9 |
| 20260902043045 | 23 | 175 | 1.6 | 6.4 | 0.00 | 0.00 | 0.00 | 51 | 1005.9 |
| 20260902041546 | 23 | 132 | 3.2 | 6.4 | 0.00 | 0.00 | 0.00 | 49 | 1006.1 |
| 20260902040048 | 24 | 135 | 6.4 | 12.9 | 0.00 | 0.00 | 0.00 | 48 | 1006.3 |
| 20260902034541 | 23 | 119 | 11.3 | 19.3 | 0.00 | 0.00 | 0.00 | 49 | 1005.9 |
| 20260902033040 | 23 | 67 | 6.4 | 19.3 | 0.00 | 0.00 | 0.00 | 50 | 1006.0 |
| 20260902031544 | 24 | 126 | 4.8 | 12.9 | 0.00 | 0.00 | 0.00 | 46 | 1006.4 |
| 20260902030039 | 25 | 140 | 0.0 | 8.0 | 0.00 | 0.00 | 0.00 | 45 | 1006.4 |
| 20260902024541 | 25 | 70 | 6.4 | 17.7 | 0.00 | 0.00 | 0.00 | 46 | 1005.8 |
| 20260902023044 | 25 | 80 | 9.7 | 20.9 | 0.00 | 0.00 | 0.00 | 46 | 1005.5 |
| 20260902021538 | 25 | 59 | 11.3 | 19.3 | 0.00 | 0.00 | 0.00 | 48 | 1005.1 |
| 20260902020039 | 25 | 117 | 8.0 | 22.5 | 0.00 | 0.00 | 0.00 | 48 | 1004.8 |
| 20260902014538 | 25 | 133 | 9.7 | 29.0 | 0.00 | 0.00 | 0.00 | 46 | 1004.8 |
| 20260902013043 | 26 | 97 | 12.9 | 29.0 | 0.00 | 0.00 | 0.00 | 42 | 1004.8 |
| 20260902011537 | 26 | 84 | 6.4 | 17.7 | 0.00 | 0.00 | 0.00 | 38 | 1004.8 |
| 20260902010036 | 26 | 83 | 8.0 | 17.7 | 0.00 | 0.00 | 0.00 | 37 | 1004.6 |
| 20260902004536 | 27 | 128 | 9.7 | 16.1 | 0.00 | 0.00 | 0.00 | 38 | 1004.6 |
| 20260902003039 | 27 | 114 | 8.0 | 19.3 | 0.00 | 0.00 | 0.00 | 38 | 1004.7 |
| 20260902001552 | 27 | 142 | 12.9 | 25.7 | 0.00 | 0.00 | 0.00 | 38 | 1004.7 |
| 20260902000038 | 27 | 122 | 17.7 | 27.4 | 0.00 | 0.00 | 0.00 | 37 | 1004.6 |
| 20260901234534 | 28 | 111 | 14.5 | 30.6 | 0.00 | 0.00 | 0.00 | 36 | 1004.6 |
| 20260901233035 | 30 | 106 | 16.1 | 29.0 | 0.00 | 0.00 | 0.00 | 29 | 1004.5 |
| 20260901231531 | 30 | 107 | 16.1 | 38.6 | 0.00 | 0.00 | 0.00 | 30 | 1004.4 |
| 20260901230031 | 30 | 82 | 22.5 | 29.0 | 0.00 | 0.00 | 0.00 | 31 | 1004.7 |
| 20260901224529 | 30 | 129 | 6.4 | 17.7 | 0.00 | 0.00 | 0.00 | 30 | 1004.9 |
| 20260901223027 | 30 | 107 | 9.7 | 19.3 | 0.00 | 0.00 | 0.00 | 30 | 1005.0 |
| 20260901221525 | 30 | 102 | 9.7 | 22.5 | 0.00 | 0.00 | 0.00 | 29 | 1005.2 |
| 20260901220023 | 30 | 126 | 14.5 | 22.5 | 0.00 | 0.00 | 0.00 | 30 | 1005.6 |
| 20260901214523 | 30 | 151 | 6.4 | 19.3 | 0.00 | 0.00 | 0.00 | 29 | 1005.5 |
| 20260901213020 | 29 | 198 | 9.7 | 25.7 | 0.00 | 0.00 | 0.00 | 29 | 1005.7 |
| 20260901211519 | 30 | 145 | 8.0 | 17.7 | 0.00 | 0.00 | 0.00 | 29 | 1005.8 |
| 20260901210017 | 29 | 141 | 11.3 | 19.3 | 0.00 | 0.00 | 0.00 | 29 | 1005.9 |
| 20260901204516 | 29 | 132 | 9.7 | 17.7 | 0.00 | 0.00 | 0.00 | 30 | 1006.0 |
| 20260901203015 | 28 | 178 | 8.0 | 24.1 | 0.00 | 0.00 | 0.00 | 31 | 1006.4 |
| 20260901201510 | 28 | 131 | 12.9 | 24.1 | 0.00 | 0.00 | 0.00 | 32 | 1006.5 |
| 20260901200008 | 28 | 131 | 6.4 | 22.5 | 0.00 | 0.00 | 0.00 | 36 | 1006.8 |
| 20260901194506 | 28 | 116 | 11.3 | 20.9 | 0.00 | 0.00 | 0.00 | 37 | 1007.0 |
| 20260901193005 | 27 | 112 | 17.7 | 25.7 | 0.00 | 0.00 | 0.00 | 41 | 1007.2 |
| 20260901191503 | 27 | 155 | 11.3 | 24.1 | 0.00 | 0.00 | 0.00 | 42 | 1007.4 |
| 20260901190003 | 27 | 123 | 9.7 | 19.3 | 0.00 | 0.00 | 0.00 | 42 | 1007.4 |
| 20260901184502 | 28 | 175 | 4.8 | 14.5 | 0.00 | 0.00 | 0.00 | 30 | 1007.5 |
| 20260901183102 | 28 | 286 | 6.4 | 19.3 | 0.00 | 0.00 | 0.00 | 31 | 1007.5 |
| 20260901181604 | 27 | 292 | 14.5 | 19.3 | 0.00 | 0.00 | 0.00 | 32 | 1007.4 |
| 20260901180054 | 26 | 320 | 8.0 | 22.5 | 0.00 | 0.00 | 0.00 | 38 | 1007.5 |
| 20260901174550 | 25 | 308 | 6.4 | 14.5 | 0.00 | 0.00 | 0.00 | 46 | 1007.9 |
| 20260901173057 | 24 | 41 | 11.3 | 16.1 | 0.00 | 0.00 | 0.00 | 53 | 1008.7 |
| 20260901171551 | 23 | 24 | 8.0 | 12.9 | 0.00 | 0.00 | 0.00 | 55 | 1008.9 |
| 20260901170044 | 22 | 42 | 4.8 | 9.7 | 0.00 | 0.00 | 0.00 | 56 | 1009.1 |
| 20260901164542 | 21 | 356 | 3.2 | 8.0 | 0.00 | 0.00 | 0.00 | 61 | 1009.1 |
| 20260901163032 | 20 | 290 | 3.2 | 14.5 | 0.00 | 0.00 | 0.00 | 66 | 1009.1 |
| 20260901161548 | 19 | 248 | 1.6 | 8.0 | 0.00 | 0.00 | 0.00 | 71 | 1009.0 |
| 20260901160032 | 18 | 328 | 3.2 | 6.4 | 0.00 | 0.00 | 0.00 | 73 | 1008.9 |
| 20260901154532 | 18 | 279 | 4.8 | 9.7 | 0.00 | 0.00 | 0.00 | 74 | 1008.6 |
| 20260901153029 | 17 | 293 | 3.2 | 6.4 | 0.00 | 0.00 | 0.00 | 79 | 1008.8 |
| 20260901151531 | 17 | 212 | 0.0 | 0.0 | 0.00 | 0.00 | 0.00 | 82 | 1008.8 |
| 20260901150037 | 17 | 212 | 0.0 | 0.0 | 0.00 | 0.00 | 0.00 | 83 | 1008.9 |
| 20260901144537 | 17 | 212 | 1.6 | 6.4 | 0.00 | 0.00 | 0.00 | 83 | 1009.2 |
| 20260901143026 | 17 | 227 | 0.0 | 4.8 | 0.00 | 0.00 | 0.00 | 81 | 1008.9 |
| 20260901141525 | 17 | 227 | 3.2 | 6.4 | 0.00 | 0.00 | 0.00 | 81 | 1009.1 |
| 20260901140024 | 17 | 166 | 3.2 | 9.7 | 0.00 | 0.00 | 0.00 | 80 | 1009.2 |
| 20260901134525 | 17 | 79 | 0.0 | 1.6 | 0.00 | 0.00 | 0.00 | 78 | 1009.0 |
| 20260901133022 | 17 | 55 | 0.0 | 1.6 | 0.00 | 0.00 | 0.00 | 79 | 1008.7 |
| 20260901131525 | 17 | 133 | 0.0 | 0.0 | 0.00 | 0.00 | 0.00 | 80 | 1008.6 |
| 20260901130025 | 16 | 133 | 0.0 | 0.0 | 0.00 | 0.00 | 0.00 | 81 | 1008.5 |
| 20260901124520 | 16 | 133 | 0.0 | 11.3 | 0.00 | 0.00 | 0.00 | 81 | 1008.5 |
| 20260901123019 | 16 | 89 | 0.0 | 0.0 | 0.00 | 0.00 | 0.00 | 82 | 1008.3 |
| 20260901121518 | 16 | 89 | 0.0 | 8.0 | 0.00 | 0.00 | 0.00 | 82 | 1008.4 |
| 20260901120017 | 16 | 254 | 0.0 | 0.0 | 0.00 | 0.00 | 0.00 | 82 | 1008.3 |
| 20260901114515 | 16 | 254 | 0.0 | 6.4 | 0.00 | 0.00 | 0.00 | 81 | 1008.1 |
| 20260901113014 | 16 | 254 | 0.0 | 3.2 | 0.00 | 0.00 | 0.00 | 81 | 1008.3 |
| 20260901111512 | 17 | 286 | 0.0 | 4.8 | 0.00 | 0.00 | 0.00 | 80 | 1007.9 |
| 20260901110011 | 17 | 326 | 0.0 | 6.4 | 0.00 | 0.00 | 0.00 | 79 | 1007.8 |
| 20260901104512 | 17 | 288 | 1.6 | 9.7 | 0.00 | 0.00 | 0.00 | 79 | 1008.0 |
| 20260901103008 | 17 | 346 | 6.4 | 11.3 | 0.00 | 0.00 | 0.00 | 79 | 1008.1 |
| 20260901101508 | 17 | 24 | 8.0 | 14.5 | 0.00 | 0.00 | 0.00 | 79 | 1008.2 |
| 20260901100005 | 17 | 16 | 9.7 | 16.1 | 0.00 | 0.00 | 0.00 | 78 | 1008.4 |
| 20260901094503 | 17 | 316 | 3.2 | 6.4 | 0.00 | 0.00 | 0.00 | 75 | 1009.4 |
| 20260901093103 | 17 | 41 | 0.0 | 6.4 | 0.00 | 0.00 | 0.00 | 74 | 1009.2 |
| 20260901091604 | 17 | 49 | 4.8 | 8.0 | 0.00 | 0.00 | 0.00 | 73 | 1008.9 |
| 20260901090058 | 17 | 34 | 4.8 | 9.7 | 0.00 | 0.00 | 0.00 | 72 | 1008.9 |
| 20260901084558 | 18 | 28 | 0.0 | 11.3 | 0.00 | 0.00 | 0.00 | 70 | 1008.8 |
| 20260901083057 | 18 | 80 | 0.0 | 12.9 | 0.00 | 0.00 | 0.00 | 70 | 1008.8 |
| 20260901081554 | 18 | 77 | 0.0 | 0.0 | 0.00 | 0.00 | 0.00 | 68 | 1008.8 |
| 20260901080053 | 18 | 77 | 0.0 | 0.0 | 0.00 | 0.00 | 0.00 | 66 | 1008.8 |
| 20260901074551 | 18 | 77 | 0.0 | 6.4 | 0.00 | 0.00 | 0.00 | 65 | 1009.1 |